LIBDLGKR

Guest
Details From LIBD - Bari Palese Macchie
To LGKR - IOANNIS KAPODISTRIAS INTL
Flight Number -
Tags generated
Created
Modified
Stats Distance 171 nm / 317 km
Max Altitude 22,800 ft / 6,949 m
Waypoints 3
Social Downloads 1
Likes 0
Share VATSIM

Download

Looking for another format? Having issues loading an existing format? Contact us
Advertisement - Login to hide

Notes

Basic altitude profile: - Ascent Rate: 2500ft/min - Ascent Speed: 250kts - Cruise Altitude: 21000ft - Cruise Speed: 420kts - Descent Rate: 1500ft/min - Descent Speed: 250kts Options: - Use NATs: no - Use PACOTS: no - Use low airways: no - Use high airways: yes

Route

LIBD BRD LGKR

ID Type Via Altitude (ft/m) Position (lat/lon) Dist (leg/tot) Name
O LIBD APT - 0 / 0 41.13787 / 16.75832 - / 0 nm Bari Palese Macchie
BRD VOR - 22,800 / 6,949 40.61083 / 18.00278 64 / 64 nm BRINDISI VORTAC
O LGKR APT - 0 / 0 39.60178 / 19.91191 106 / 171 nm IOANNIS KAPODISTRIAS INTL

Altitude Profile

Advertisement - Login to hide

Weather


0- 5 10 15 20 25 30 35+ Temperature / °C

Clouds and Precipitation
Forecast for 2019-04-23 18:00 UTC. Updated 25 minutes ago

Ground ~20,000 ft ~40,000 ft Winds

LIBD

Details ICAO LIBD (BRI)
Name Bari Karol Wojtyla
Region Italy
Timezone Europe/Rome (UTC+2.0)
Stats Elevation 174 ft / 53 m (AMSL)
Location 41.137900° 16.758300°
Runways 1
Magnetic Variation 3.876° E

METAR

LIBD 231550Z 19010KT 160V220 5000 BR FEW020 SCT035 19/14 Q1009

Decode

TAF

TAF LIBD 231100Z 2312/2412 16012KT 9999 SCT030 TEMPO 2312/2318 RA= TAF LIBP 231100Z 2312/2412 22008KT 9999 SCT030 BECMG 2408/2410 08010KT

Decode

Departure Runways

ID Width Length Bearing (true/mag) Surface Threshold Overrun Markings Lighting
07 148 ft / 45 m 9,260 ft / 2,823 m 69.39° / 65.51° ASPHALT 1,220 ft / 372 m 0 ft / 0 m PREC-APP CENTERLINE EDGE THRESHOLD ALSF-II REIL-OMNI
25 148 ft / 45 m 9,260 ft / 2,823 m 249.41° / 245.53° ASPHALT 0 ft / 0 m 0 ft / 0 m PREC-APP CENTERLINE EDGE THRESHOLD SALS REIL-OMNI

LGKR

Details ICAO LGKR (CFU)
Name IOANNIS KAPODISTRIAS INTL
Region Greece
Timezone Europe/Athens (UTC+3.0)
Stats Elevation 0 ft / 0 m (AMSL)
Location 39.602300° 19.912000°
Runways 1
Magnetic Variation 4.233° E

METAR

LGKR 231550Z 15016KT 9999 FEW025 SCT040 OVC080 20/07 Q1015 NOSIG

Decode

TAF

TAF LGKR 231100Z 2312/2412 16015G25KT 9999 FEW020 SCT040 BKN080 PROB30 TEMPO 2312/2318 5000 RA BECMG 2316/2318 FEW020 SCT080 TEMPO 2312/2400 14020G30KT

Decode

Destination Runways

ID Width Length Bearing (true/mag) Surface Threshold Overrun Markings Lighting
17 148 ft / 45 m 7,604 ft / 2,318 m 168.78° / 164.55° ASPHALT 1,342 ft / 409 m 0 ft / 0 m PREC-APP EDGE THRESHOLD ALSF-I
35 148 ft / 45 m 7,604 ft / 2,318 m 348.79° / 344.55° ASPHALT 0 ft / 0 m 0 ft / 0 m PREC-APP EDGE THRESHOLD SALS REIL-OMNI

Popular Alternatives